Tracking 18785 objects as of 20-August-2017
HD Live streaming from Space Station
objects crossing your sky now

NANOSAT 1B

Track NANOSAT 1B now!
10-day predictions
NANOSAT 1B is classified as:


NORAD ID: 35685
Int'l Code: 2009-041E
Perigee: 583.1 km
Apogee: 664.9 km
Inclination: 98.2 °
Period: 97.0 minutes
Semi major axis: 6994 km
RCS: 0.248 m2 (medium)
Launch date: July 29, 2009
Source: Spain (SPN)
Launch site: TYURATAM MISSILE AND SPACE COMPLEX (TTMTR)

Nanosat 1B is a small testbed for the Spanish space agency. The satellite, stretching about 20 inches [50 cm] in diameter, will demonstrate basic space technologies.
Your satellite tracking list
Your tracking list is empty





NASA's NSSDC Master Catalog

Two Line Element Set (TLE):
1 35685U 09041E   17232.12159815 +.00000127 +00000-0 +22039-4 0  9998
2 35685 098.2458 208.7209 0058495 204.2311 155.6149 14.83964472435693
Source of the keplerian elements: AFSPC